GW2275 Weather Reports


time (UTC)temp
C
wind
direction
speed
KPH
gust
KPH
rain 1hr
cm
rain 24hr
cm
rain mn
cm
humidity
%
barometer
mb
20260510193113 23 100 0.0 0.0 0.33 3.45 1.96 94 1016.2
20260510191554 24 73 0.0 1.6 1.70 3.45 1.96 96 1016.4
20260510190053 24 31 1.6 8.0 1.96 3.45 1.96 96 1016.4
20260510184557 22 34 1.6 8.0 1.96 3.45 1.96 95 1016.8
20260510183054 22 11 1.6 4.8 1.60 3.10 1.63 93 1017.3
20260510181559 23 282 4.8 14.5 0.30 1.80 0.36 90 1017.2
20260510181502 23 255 4.8 14.5 0.23 1.73 0.25 90 1017.1
20260510180016 25 41 1.6 6.4 0.00 1.50 0.00 87 1016.5
20260510174520 25 53 1.6 4.8 0.00 1.50 0.00 86 1016.9
20260510173026 25 42 1.6 9.7 0.00 1.50 0.00 85 1017.0
20260510171533 26 44 4.8 8.0 0.00 1.50 0.00 87 1017.1
20260510170037 26 51 4.8 9.7 0.00 1.50 0.00 85 1017.1
20260510164524 27 54 3.2 11.3 0.00 1.50 0.00 82 1017.1
20260510163037 28 286 0.0 3.2 0.00 1.50 0.00 79 1017.2
20260510161548 28 143 1.6 3.2 0.00 1.50 0.00 75 1017.3
20260510160037 28 146 0.0 6.4 0.00 1.50 0.00 76 1017.3
20260510154539 28 260 3.2 8.0 0.00 1.50 0.00 76 1017.4
20260510153047 27 288 0.0 8.0 0.00 1.50 0.00 80 1017.5
20260510151551 27 216 1.6 8.0 0.00 1.50 0.00 81 1017.4
20260510150109 27 267 0.0 9.7 0.00 1.50 0.00 83 1017.3
20260510144609 26 136 0.0 11.3 0.00 1.50 0.00 84 1017.2
20260510143058 25 152 1.6 6.4 0.00 1.50 0.00 89 1017.4
20260510141603 25 323 1.6 8.0 0.00 1.50 0.00 93 1017.2
20260510141504 25 32 0.0 6.4 0.00 1.50 0.00 94 1017.1
20260510140005 24 326 1.6 6.4 0.00 1.50 0.00 96 1016.9
20260510134509 24 212 0.0 6.4 0.00 1.50 0.00 97 1016.7
20260510133014 23 220 0.0 8.0 0.00 1.50 0.00 98 1016.7
20260510131520 23 96 0.0 3.2 0.00 1.50 0.00 98 1016.6
20260510130026 23 139 0.0 1.6 0.00 1.50 0.00 98 1016.5
20260510124528 23 205 0.0 3.2 0.00 1.50 0.00 98 1016.5
20260510123033 23 226 0.0 1.6 0.00 1.50 0.00 98 1016.3
20260510121537 22 170 0.0 0.0 0.00 1.50 0.00 98 1016.1
20260510120040 22 283 0.0 1.6 0.00 1.50 0.00 98 1015.9
20260510114607 22 158 0.0 1.6 0.00 1.50 0.00 98 1015.8
20260510113058 21 189 0.0 0.0 0.00 1.50 0.00 98 1015.6
20260510111604 21 189 0.0 0.0 0.00 1.50 0.00 98 1015.3
20260510111502 21 189 0.0 0.0 0.00 1.50 0.00 98 1015.3
20260510110016 21 189 0.0 0.0 0.00 1.50 0.00 97 1015.3
20260510104516 21 189 0.0 0.0 0.00 1.50 0.00 97 1015.0
20260510103026 21 189 0.0 1.6 0.00 1.50 0.00 97 1014.8
20260510101531 21 174 0.0 0.0 0.00 1.50 0.00 98 1014.6
20260510100038 21 174 0.0 0.0 0.00 1.50 0.00 97 1014.4
20260510094537 21 174 0.0 0.0 0.00 1.50 0.00 97 1014.4
20260510093040 22 174 0.0 0.0 0.00 1.50 0.00 97 1014.3
20260510091549 22 174 0.0 0.0 0.00 1.50 0.00 97 1014.1
20260510090040 22 174 0.0 3.2 0.00 1.50 0.00 97 1013.9
20260510084548 22 176 0.0 3.2 0.00 1.50 0.00 97 1013.8
20260510083055 22 150 0.0 4.8 0.00 1.50 0.00 97 1013.7
20260510081559 22 162 0.0 1.6 0.00 1.50 0.00 97 1013.5
20260510081502 22 162 0.0 1.6 0.00 1.50 0.00 97 1013.5
20260510080015 22 161 0.0 1.6 0.00 1.50 0.00 97 1013.6
20260510074518 22 91 0.0 1.6 0.00 1.50 0.00 97 1013.7
20260510073024 22 168 0.0 1.6 0.00 1.50 0.00 97 1013.8
20260510071533 22 189 0.0 0.0 0.00 1.50 0.00 97 1013.9
20260510070047 22 190 0.0 1.6 0.00 1.50 0.00 97 1014.0
20260510064549 22 157 0.0 0.0 0.00 1.50 0.00 97 1014.2
20260510063048 22 135 0.0 1.6 0.00 1.50 0.00 97 1014.4
20260510061600 22 152 0.0 0.0 0.00 1.50 0.00 97 1014.7
20260510061503 22 152 0.0 0.0 0.00 1.50 0.00 97 1014.6
20260510060013 22 143 0.0 1.6 0.00 1.50 0.00 97 1014.8
20260510054519 22 136 0.0 0.0 0.00 1.50 0.00 97 1014.8
20260510053028 21 198 0.0 0.0 0.00 1.50 0.00 97 1015.1
20260510051534 21 198 0.0 0.0 0.00 1.50 0.00 97 1015.2
20260510050040 22 245 0.0 1.6 0.00 1.50 0.00 97 1015.5
20260510044557 22 245 0.0 0.0 0.00 1.50 0.00 97 1015.4
20260510043109 22 246 0.0 0.0 0.00 1.50 0.00 97 1015.6
20260510041503 22 246 0.0 0.0 0.00 1.50 0.00 97 1015.6
20260510040016 22 246 0.0 0.0 0.00 1.50 1.50 97 1015.6
20260510034515 22 246 0.0 0.0 0.00 1.50 1.50 97 1015.6
20260510033023 22 246 0.0 0.0 0.00 1.50 1.50 97 1015.5
20260510031530 22 246 0.0 0.0 0.00 1.50 1.50 97 1015.6
20260510030023 22 246 0.0 0.0 0.00 1.50 1.50 97 1015.5
20260510024534 22 246 0.0 0.0 0.00 1.50 1.50 97 1015.4
20260510023037 22 246 0.0 0.0 0.00 1.50 1.50 97 1015.1
20260510021534 22 247 0.0 0.0 0.00 1.50 1.50 97 1015.2
20260510020038 22 248 0.0 0.0 0.00 1.50 1.50 97 1015.0
20260510014524 22 248 0.0 0.0 0.00 1.50 1.50 97 1014.7
20260510013029 22 248 0.0 1.6 0.00 1.50 1.50 96 1014.7
20260510011535 22 248 0.0 0.0 0.00 1.50 1.50 96 1014.6
20260510010059 22 262 0.0 0.0 0.00 1.50 1.50 96 1014.6
20260510004600 22 262 0.0 0.0 0.00 1.50 1.50 96 1014.6
20260510003006 22 262 0.0 0.0 0.00 1.50 1.50 96 1014.3
20260510001520 22 262 0.0 0.0 0.00 1.50 1.50 96 1014.2
20260510000020 22 262 0.0 0.0 0.00 1.50 1.50 96 1013.9
20260509234526 22 262 0.0 0.0 0.00 1.50 1.50 96 1013.7
20260509233018 22 262 0.0 0.0 0.00 1.50 1.50 96 1013.8
20260509231522 22 262 0.0 0.0 0.00 1.50 1.50 96 1013.7
20260509230029 22 262 0.0 1.6 0.00 2.18 1.50 96 1013.4
20260509224537 22 255 0.0 3.2 0.00 2.18 1.50 95 1013.4
20260509223057 22 31 0.0 1.6 0.00 2.18 1.50 95 1013.3
20260509221553 22 8 0.0 0.0 0.00 2.18 1.50 95 1013.3
20260509220105 22 315 0.0 3.2 0.00 3.12 1.50 95 1013.4
20260509220002 22 315 0.0 3.2 0.00 3.12 1.50 95 1013.4
20260509214504 22 355 0.0 3.2 0.00 3.12 1.50 94 1013.3
20260509213013 23 288 0.0 1.6 0.03 3.12 1.50 95 1013.3
20260509211521 23 301 0.0 3.2 0.05 3.12 1.50 95 1013.4
20260509210024 23 241 0.0 1.6 0.84 3.12 1.50 95 1013.4
20260509204541 23 291 0.0 1.6 1.45 3.12 1.50 94 1013.2
20260509203042 23 80 0.0 3.2 1.45 3.10 1.45 93 1013.3
20260509201548 23 336 1.6 4.8 1.42 3.07 1.42 93 1013.0
20260509200058 24 319 9.7 25.7 0.71 2.36 0.71 88 1014.0
20260509194508 25 56 0.0 3.2 0.03 1.65 0.03 87 1012.8